OneWeb SL0148

operational
NORAD ID: 48059 Int'l Des: 2021-025 Owner: ONEWEBN Country: UK Constellation: oneweb
LEOCIRCULARPOLARONEWEB_TYPE

About OneWeb SL0148

Description loading...

Live Position

Loading 3D Globe...

Upcoming Passes

Altitude History

Altitude vs Time

uPlot chart will show altitude changes over time

Two-Line Element Set

1 48059U 21025T 25349.76206878 -.00000104 00000-0 -32073-3 0 9998
2 48059 87.8977 356.6916 0001499 110.8424 249.2866 13.13471026229539
Epoch: Dec 15, 2025 • Age: 22 hours

Current Status

Altitude 1218.4 km
Velocity 7.25 km/s
Sub-Earth Point 55.77°N, 26.35°E
Launch Date Mar 25, 2021
Age 4.7 years
Type internet

Technical Details

Classification Payload
Mass 148.00 kg
Dry Mass 140.00 kg
Total Mass 148.00 kg
Length 1.30 m
Diameter 1.00 m
Span 5.00 m
Shape Trapezoid+2 pan
Manufacturer ONEWUS
Bus Type ARROW
Phase Status In Orbit
Owner/State ONEWEBN/UK

Large Constellations

Loading constellations...